Location: Wiler
(46.4041°N, 7.7840°E)
Time: 23:44:57
(UTC+00:00)

STARLINK-52 - Pass Details

Date: 09 April 2020
Orbit: 393 x 395 km, 53.0° (Epoch: 22 May)

Event Time Altitude Azimuth Distance (km) Brightness Sun altitude
Rises 19:11:26 0° 233° (SW) 2,282 7.2 -11.0°
Reaches altitude 10° 19:13:30 10° 231° (SW) 1,430 6.1 -11.4°
Maximum altitude 19:16:41 72° 147° (SSE) 418 2.8 -11.9°
Drops below altitude 10° 19:19:53 10° 62° (ENE) 1,441 5.4 -12.4°
Enters shadow 19:19:56 10° 62° (ENE) 1,457 5.4 -12.4°
